Date String (YYYY-MM-DD hh:mm:ss) UTC,Instrument flags,Ambient pressure (hPa),Sample flow (lpm),Bypass flow (lpm),Sample temperature (°C),Ambient temperature (°C),ASC tube jacket temperature (°C),LED temperature (°C),Box temperature (°C),Sample RH (%),Span deviation,Mass concentration (μg/m³),Mass concentration (μg/m³),Mass concentration (μg/m³)
DateTimeUTC,F1_M11,P_M11,Q1_M11,Q2_M11,T1_M11,T2_M11,T3_M11,T4_M11,T5_M11,U1_M11,ZSPAN_M11,X2_M11,X0_M11,X1_M11
2021-10-17 10:00:00,,0831.4,5.00,0.00,27.8,26.8,00.0,36.9,29.5,09.5,0000.0,0002.27,0005.69,0001.50
2021-10-17 10:01:00,,0831.4,5.00,0.00,27.8,26.7,00.0,36.9,29.5,09.5,0000.0,0002.27,0005.77,0001.47
2021-10-17 10:02:00,,0831.4,4.99,0.00,27.7,26.7,00.0,36.9,29.5,09.4,0000.0,0002.27,0005.85,0001.47
2021-10-17 10:03:00,,0831.4,5.00,0.00,27.7,26.7,00.0,36.9,29.5,09.4,0000.0,0002.24,0005.68,0001.43
2021-10-17 10:04:00,,0831.4,5.01,0.00,27.7,26.7,00.0,36.9,29.4,09.4,0000.0,0002.22,0005.57,0001.42
2021-10-17 10:05:00,,0831.4,4.99,0.00,27.7,26.7,00.0,36.9,29.5,09.4,0000.0,0002.22,0004.90,0001.41
2021-10-17 10:06:00,,0831.4,5.02,0.00,27.7,26.7,00.0,36.9,29.4,09.4,0000.0,0002.15,0005.15,0001.38
2021-10-17 10:07:00,,0831.4,5.00,0.00,27.7,26.6,00.0,36.9,29.4,09.4,0000.0,0002.05,0004.89,0001.33
2021-10-17 10:08:00,,0831.4,4.99,0.00,27.7,26.6,00.0,36.9,29.4,09.5,0000.0,0002.05,0004.91,0001.31
2021-10-17 10:09:00,,0831.5,4.99,0.00,27.7,26.6,00.0,36.9,29.4,09.5,0000.0,0002.05,0005.00,0001.27
2021-10-17 10:10:00,,0831.4,4.99,0.00,27.7,26.6,00.0,36.9,29.4,09.5,0000.0,0001.98,0005.15,0001.23
2021-10-17 10:11:00,,0831.4,5.00,0.00,27.7,26.7,00.0,36.8,29.4,09.5,0000.0,0001.94,0005.28,0001.21
2021-10-17 10:12:00,,0831.4,5.00,0.00,27.7,26.6,00.0,36.8,29.4,09.5,0000.0,0001.87,0005.12,0001.19
2021-10-17 10:13:00,,0831.3,5.00,0.00,27.7,26.7,00.0,36.8,29.4,09.5,0000.0,0001.85,0005.00,0001.17
2021-10-17 10:14:00,,0831.3,4.99,0.00,27.7,26.7,00.0,36.8,29.4,09.5,0000.0,0001.80,0004.97,0001.14
2021-10-17 10:15:00,,0831.4,5.00,0.00,27.7,26.7,00.0,36.8,29.4,09.5,0000.0,0001.78,0004.98,0001.14
2021-10-17 10:16:00,,0831.3,5.00,0.00,27.7,26.7,00.0,36.8,29.4,09.4,0000.0,0001.74,0004.44,0001.14
2021-10-17 10:17:00,,0831.3,5.00,0.00,27.7,26.7,00.0,36.8,29.4,09.4,0000.0,0001.75,0003.63,0001.14
2021-10-17 10:18:00,,0831.2,4.99,0.00,27.7,26.7,00.0,36.8,29.4,09.3,0000.0,0001.75,0003.76,0001.13
2021-10-17 10:19:00,,0831.2,4.99,0.00,27.7,26.7,00.0,36.8,29.4,09.4,0000.0,0001.64,0004.13,0001.11
2021-10-17 10:20:00,,0831.2,5.00,0.00,27.6,26.6,00.0,36.8,29.4,09.4,0000.0,0001.60,0003.98,0001.12
2021-10-17 10:21:00,,0831.2,5.01,0.00,27.6,26.6,00.0,36.8,29.4,09.4,0000.0,0001.63,0003.78,0001.12
2021-10-17 10:22:00,,0831.2,4.99,0.00,27.6,26.6,00.0,36.8,29.4,09.4,0000.0,0001.63,0003.60,0001.11
2021-10-17 10:23:00,,0831.2,5.01,0.00,27.6,26.6,00.0,36.8,29.4,09.3,0000.0,0001.63,0003.60,0001.10
2021-10-17 10:24:00,,0831.2,4.99,0.00,27.6,26.6,00.0,36.8,29.4,09.4,0000.0,0001.62,0003.56,0001.10
2021-10-17 10:25:00,,0831.2,4.99,0.00,27.6,26.6,00.0,36.8,29.4,09.4,0000.0,0001.69,0003.60,0001.10
2021-10-17 10:26:00,,0831.2,5.01,0.00,27.6,26.6,00.0,36.8,29.4,09.4,0000.0,0001.71,0003.72,0001.10
2021-10-17 10:27:00,,0831.2,5.00,0.00,27.6,26.6,00.0,36.8,29.4,09.3,0000.0,0001.75,0003.86,0001.10
2021-10-17 10:28:00,,0831.2,5.00,0.00,27.6,26.6,00.0,36.8,29.4,09.3,0000.0,0001.75,0003.76,0001.10
2021-10-17 10:29:00,,0831.2,4.99,0.00,27.6,26.6,00.0,36.8,29.4,09.3,0000.0,0001.71,0003.74,0001.09
2021-10-17 10:30:00,,0831.2,5.01,0.00,27.6,26.6,00.0,36.8,29.3,09.3,0000.0,0001.78,0004.71,0001.10
2021-10-17 10:31:00,,0831.3,5.00,0.00,27.6,26.6,00.0,36.8,29.4,09.2,0000.0,0001.77,0005.27,0001.08
2021-10-17 10:32:00,,0831.2,5.00,0.00,27.6,26.6,00.0,36.8,29.3,09.3,0000.0,0001.73,0005.21,0001.07
2021-10-17 10:33:00,,0831.2,5.01,0.00,27.6,26.6,00.0,36.8,29.3,09.2,0000.0,0001.70,0005.15,0001.06
2021-10-17 10:34:00,,0831.2,5.00,0.00,27.6,26.6,00.0,36.8,29.3,09.2,0000.0,0001.64,0005.09,0001.04
2021-10-17 10:35:00,,0831.2,5.00,0.00,27.6,26.6,00.0,36.8,29.3,09.2,0000.0,0001.62,0005.14,0001.03
2021-10-17 10:36:00,,0831.2,4.99,0.00,27.6,26.5,00.0,36.7,29.3,09.2,0000.0,0001.56,0005.15,0001.02
2021-10-17 10:37:00,,0831.2,5.01,0.00,27.6,26.5,00.0,36.7,29.3,09.2,0000.0,0001.50,0005.63,0001.00
2021-10-17 10:38:00,,0831.2,5.01,0.00,27.6,26.5,00.0,36.7,29.3,09.1,0000.0,0001.45,0005.85,0000.98
2021-10-17 10:39:00,,0831.2,5.01,0.00,27.6,26.5,00.0,36.7,29.3,09.1,0000.0,0001.44,0005.92,0000.96
2021-10-17 10:40:00,,0831.2,5.00,0.00,27.5,26.5,00.0,36.7,29.3,09.1,0000.0,0001.44,0005.93,0000.95
2021-10-17 10:41:00,,0831.3,5.00,0.00,27.5,26.5,00.0,36.7,29.3,09.1,0000.0,0001.45,0004.62,0000.93
2021-10-17 10:42:00,,0831.2,5.00,0.00,27.5,26.5,00.0,36.7,29.3,09.2,0000.0,0001.43,0004.30,0000.92
2021-10-17 10:43:00,,0831.2,4.99,0.00,27.5,26.5,00.0,36.7,29.2,09.3,0000.0,0001.44,0004.32,0000.94
2021-10-17 10:44:00,,0831.2,5.00,0.00,27.5,26.5,00.0,36.7,29.2,09.4,0000.0,0001.46,0004.33,0000.96
2021-10-17 10:45:00,,0831.2,5.01,0.00,27.5,26.5,00.0,36.7,29.2,09.5,0000.0,0001.56,0004.60,0001.00
2021-10-17 10:46:00,,0831.2,5.00,0.00,27.5,26.4,00.0,36.7,29.2,09.5,0000.0,0001.62,0004.76,0001.04
2021-10-17 10:47:00,,0831.2,4.99,0.00,27.5,26.4,00.0,36.7,29.2,09.4,0000.0,0001.62,0004.62,0001.06
2021-10-17 10:48:00,,0831.2,5.01,0.00,27.5,26.4,00.0,36.7,29.2,09.4,0000.0,0001.67,0004.05,0001.09
2021-10-17 10:49:00,,0831.2,4.99,0.00,27.4,26.4,00.0,36.6,29.2,09.4,0000.0,0001.71,0003.72,0001.13
2021-10-17 10:50:00,,0831.2,5.01,0.00,27.4,26.4,00.0,36.6,29.2,09.5,0000.0,0001.78,0003.94,0001.18
2021-10-17 10:51:00,,0831.2,4.99,0.00,27.4,26.4,00.0,36.6,29.2,09.4,0000.0,0001.88,0004.18,0001.24
2021-10-17 10:52:00,,0831.2,5.01,0.00,27.4,26.4,00.0,36.6,29.2,09.4,0000.0,0001.83,0003.88,0001.27
2021-10-17 10:53:00,,0831.2,4.99,0.00,27.4,26.4,00.0,36.6,29.2,09.5,0000.0,0001.86,0003.58,0001.30
2021-10-17 10:54:00,,0831.3,5.01,0.00,27.4,26.4,00.0,36.6,29.1,09.6,0000.0,0001.92,0003.65,0001.34
2021-10-17 10:55:00,,0831.2,4.99,0.00,27.4,26.4,00.0,36.6,29.1,09.3,0000.0,0002.02,0004.45,0001.36
2021-10-17 10:56:00,,0831.3,5.00,0.00,27.4,26.4,00.0,36.6,29.2,09.3,0000.0,0001.97,0004.30,0001.34
2021-10-17 10:57:00,,0831.2,4.99,0.00,27.4,26.3,00.0,36.6,29.1,09.3,0000.0,0001.95,0004.18,0001.32
2021-10-17 10:58:00,,0831.2,5.00,0.00,27.4,26.3,00.0,36.6,29.0,09.4,0000.0,0001.95,0004.17,0001.32
2021-10-17 10:59:00,,0831.2,4.99,0.00,27.4,26.3,00.0,36.6,29.1,09.3,0000.0,0001.96,0004.23,0001.30
